Skip Page Navigation
NASA JPL Caltech
NASA Logo - Jet Propulsion Laboratory + View the NASA Portal
+ Center for Near-Earth Object Studies
JPL Home Earth Solar System Stars & Galaxies Technology
JPL Solar System Dynamics
BODIES ORBITS EPHEMERIDES TOOLS PHYSICAL DATA DISCOVERY FAQ SITE MAP
JPL Small-Body Database Browser
Search: [ help ]  
19748 (2000 BD5)
Classification: Outer Main-belt Asteroid          SPK-ID: 2019748
Ephemeris | Orbit Diagram | Orbital Elements | Mission Design | Physical Parameters | Discovery Circumstances | Close-Approach Data ]

[ show orbit diagram ]
Orbital Elements at Epoch 2459396.5 (2021-Jul-01.0) TDB
Reference: JPL 28 (heliocentric ecliptic J2000)
 Element Value Uncertainty (1-sigma)   Units 
e .1921657438942221 3.7866e-08  
a 3.203173345293503 2.5762e-08 au
q 2.587633156573033 1.2644e-07 au
i 27.14924604790843 6.1327e-06 deg
node 314.5811438273039 8.6427e-06 deg
peri 308.2080807904263 2.0306e-05 deg
M 66.52956697850503 1.9554e-05 deg
tp 2459009.526446338645
(2020-Jun-09.02644634)
0.00011344 TDB
period 2093.963415741117
5.73
2.5261e-05
6.916e-08
d
yr
n .17192277443519 2.074e-09 deg/d
Q 3.818713534013973 3.0712e-08 au
  Orbit Determination Parameters
   # obs. used (total)      1959  
   data-arc span      15456 days (42.32 yr)  
   first obs. used      1979-03-05  
   last obs. used      2021-06-28  
   planetary ephem.      DE441  
   SB-pert. ephem.      SB441-N16  
   condition code      0  
   norm. resid. RMS      .39856  
   source      ORB  
   producer      Otto Matic  
   solution date      2021-Jul-08 04:52:52  

Additional Information
 Earth MOID = 1.64431 au 
 Jupiter MOID = 1.69738 au 
 T_jup = 2.995 
[ show covariance matrix ]

Ephemeris | Orbit Diagram | Orbital Elements | Mission Design | Physical Parameters | Discovery Circumstances | Close-Approach Data ]

Physical Parameter Table
Parameter Symbol Value Units Sigma Reference Notes
absolute magnitude H 11.97   n/a E2021B10  
diameter diameter 19.261 km 0.231 urn:nasa:pds:neowise_diameters_albedos::2.0[mainbelt] (http://adsabs.harvard.edu/abs/2011ApJ...741...68M)  
rotation period rot_per 42.0054 h n/a LCDB (Rev. 2020-October); Warner et al., 2009 Result based on less than full coverage, so that the period may be wrong by 30 percent or so.
Published Reference List:
[Pal, A.; Szakats, R.; Kiss, C.; Bodi, A.; et al. (2019) Ap. J. Supl. Ser. 247, id.26.]
geometric albedo albedo 0.082   0.008 urn:nasa:pds:neowise_diameters_albedos::2.0[mainbelt] (http://adsabs.harvard.edu/abs/2012ApJ...759L...8M)  

19748 (2000 BD5)          Discovered 2000-Jan-27 by LINEAR at Socorro
Reference: 20001211/Numbers.arcLast Updated: 2004-04-19

[ show close-approach data ]
Alternate Designations
 2000 BD5 = 1984 CG1 = 1998 QP75 
Ephemeris | Orbit Diagram | Orbital Elements | Mission Design | Physical Parameters | Discovery Circumstances | Close-Approach Data ]
ABOUT SSD CREDITS/AWARDS PRIVACY/COPYRIGHT GLOSSARY LINKS
FirstGov 2021-Jul-28 15:07 UT
(server date/time)  
NASA Home Page
Site Manager:   Ryan S. Park
Webmaster  Alan B. Chamberlin